{"data":{"norad_id":89003,"intl_designator":"","name":"UNKNOWN","alt_names":[],"object_type":"UNKNOWN","status":"UNKNOWN","operator":null,"country":null,"launch_date":null,"launch_site_code":null,"launch_vehicle":null,"mission":null,"orbit_class":"UNKNOWN","rcs_meters":null,"size_class":null,"mass_kg":null,"dimensions":null,"purposes":[],"wikipedia_slug":null,"has_3d_model":false,"image_url":null,"decayed_at":null,"tle_current":{"epoch":"2026-05-23T02:34:11.821728Z","epoch_age_seconds":248767,"freshness":"STALE","line1":"1 89003U          26143.10708127  .00000191  00000+0  74172-4 0  9997","line2":"2 89003  74.0467  78.4219 0015012  98.6845 261.6009 14.36309053654711","mean_motion":14.36309053,"eccentricity":0.0015012,"inclination_deg":74.0467,"raan_deg":78.4219,"arg_perigee_deg":98.6845,"mean_anomaly_deg":261.6009,"bstar":7.4172e-5,"rev_number":65471,"period_min":100.25697442986,"perigee_km":759.98758084997,"apogee_km":781.45130743787,"semimajor_km":7148.8564441439,"source":"CELESTRAK","updated_at":"2026-05-25T13:38:11.776436Z"}}}